Voltar ao catálogo

SL-12 R/B(2)

AtivoMEO
NORAD 26992·ROCKET BODY·🇷🇺 Russia

Lançado Dec 1, 2001 de Baikonur Cosmodrome

Loading…

Próximas Passagens (próximas 24 horas)

TLE

AtualizadoSource: Space-Track

Época: Sep 13, 2026, 21:51 UTC

1 26992U 01053F   26256.91065177 -.00000037  00000-0  00000+0 0  9994
2 26992  64.1810  52.6780 0016751 265.7691 130.5165  2.13595793193394

Acompanhe SL-12 R/B(2) em tempo real com AllMySat

Download on the App Store